Regional Weather Roundup
Issued by NWS Jackson, KY

Home | Current Version | Previous Version | Text Only | Print | Product List | Glossary On
Versions: 1 2 3 4 5 6 7 8 9 10 11 12 13 14 15 16 17 18 19 20 21 22 23 24 25 26 27 28 29 30 31 32 33 34 35 36 37 38 39 40 41 42 43 44 45 46 47 48 49 50
391
ASUS43 KJKL 090810
RWRJKL

EAST KENTUCKY HOURLY WEATHER ROUNDUP
NATIONAL WEATHER SERVICE JACKSON KY
300 AM EST TUE FEB 09 2016

NOTE: "FAIR" INDICATES FEW OR NO CLOUDS BELOW 12,000 FEET WITH
NO SIGNIFICANT WEATHER AND/OR OBSTRUCTIONS TO VISIBILITY.

* THESE REPORTS ARE NOT UNDER NWS QUALITY CONTROL AND MAY NOT
  REPORT WEATHER SUCH AS PRECIPITATION AND FOG.

KYZ079-080-083-085-087-088-110-112-115-119-120-090900
...EASTERN KENTUCKY...

CITY           SKY/WX    TMP DP  RH WIND       PRES   REMARKS
JACKSON        CLOUDY    24  17  74 W8        29.70S WCI  15
LONDON         CLOUDY    23  16  74 W12       29.75R WCI  12
SOMERSET*      CLOUDY    23  18  80 W9        29.80S WCI  13
MONTICELLO*    FLURRIES  22  16  78 NW15      29.81S WCI   9
WILLIAMSBURG*  CLOUDY    23  19  86 CALM      29.76S
MIDDLESBORO*   FLURRIES  27  21  77 W5        29.75S WCI  22
HARLAN APT*    CLOUDY    27  21  80 SW7       29.71R WCI  19
HAZARD APT*    LGT SNOW N/A N/A N/A W8        29.71S
BLACK MTN*       N/A     16  16 100 W1          N/A
BIG SANDY*     FLURRIES  26  22  83 W6        29.69S WCI  20
MOREHEAD APT*  LGT SNOW  23  19  86 W6        29.73S WCI  16
$$

KYZ035-036-041-042-044-050-067-078-099-090900
...CENTRAL KENTUCKY...

CITY           SKY/WX    TMP DP  RH WIND       PRES   REMARKS
MT STERLING*   CLOUDY    23  19  86 W10       29.74S WCI  12
DANVILLE*      CLOUDY    21  18  86 W10       29.77F WCI  10
RICHMOND*      CLOUDY    21  18  86 W12       29.76S WCI   9
LEXINGTON      CLOUDY    20  14  77 W8        29.75S WCI  10
FRANKFORT      CLOUDY    21  14  74 W8        29.76S WCI  11
$$

KYZ091>093-OHZ055-061-077-WVZ005-015-034-035-042-090900
...SOUTHERN OHIO/WEST VIRGINIA...

CITY           SKY/WX    TMP DP  RH WIND       PRES   REMARKS
COVINGTON      FLURRIES  21  15  78 W14       29.71F WCI   8
COLUMBUS       LGT SNOW  28  25  88 W12       29.61S FOG     WCI  18
DAYTON         LGT SNOW  23  21  92 W14       29.65F FOG     WCI  11
WILMINGTON     LGT SNOW  21  18  88 W14       29.66S VSB 1   WCI   8
HUNTINGTON     FLURRIES  27  20  75 W14G22    29.68S WCI  16
CHARLESTON     LGT SNOW  31  28  89 W10       29.63S VSB 1   WCI  22
PINEVILLE*     LGT SNOW  30  26  85 MISG      29.65F VSB 3/4
BECKLEY        FLURRIES  27  22  81 W8        29.55F WCI  19
$$

VAZ002-007-008-TNZ017-027-036-066-071-090900
...SOUTHWEST VIRGINIA/EAST TENNESSEE...

CITY           SKY/WX    TMP DP  RH WIND       PRES   REMARKS
BRISTOL        CLOUDY    28  23  81 SW13      29.69S WCI  17
KNOXVILLE      CLOUDY    29  18  63 W13       29.78S WCI  19
OAK RIDGE      CLOUDY    30  20  66 VRB5      29.78F WCI  25
CROSSVILLE     LGT SNOW  22  15  75 W16       29.74F WCI   8
NASHVILLE      FLURRIES  27  19  72 W6        29.86F WCI  20
$$

...KEY TO REMARKS...
VSB - VISIBILITY IN MILES
WCI - WIND CHILL INDEX
HX  - HEAT INDEX

$$




USA.gov is the U.S. government's official web portal to all federal, state and local government web resources and services.